Regional Weather Roundup
Issued by NWS Huntsville, AL

Home | Current Version | Previous Version | Text Only | Print | Product List | Glossary On
Versions: 1 2 3 4 5 6 7 8 9 10 11 12 13 14 15 16 17 18 19 20 21 22 23 24 25 26 27
000
ASUS44 KHUN 222210
RWRHUN

WEATHER ROUNDUP FOR THE TENNESSEE VALLEY
NATIONAL WEATHER SERVICE HUNTSVILLE AL
500 PM CDT THU JUN 22 2017

ALZ001>004-222300-
NORTHWEST ALABAMA

CITY           SKY/WX    TMP DP  RH WIND       PRES   REMARKS
SHOALS AIRPORT PTSUNNY   83  73  72 SE16G23   29.87F
$$

ALZ005>007-016-222300-
NORTH CENTRAL ALABAMA

CITY           SKY/WX    TMP DP  RH WIND       PRES   REMARKS
DECATUR AP     LGT RAIN  76  75  97 SE13      29.91S
HUNTSVILLE AP  LGT RAIN  78  76  93 S13       29.92S
MERIDIANVILLE  LGT RAIN  77  72  83 SE10G16   29.93S
REDSTONE ARSN  LGT RAIN  76  74  93 S12       29.92S
VINEMONT AP    RAIN      74  73  94 S12G22    29.96S
$$

ALZ008>010-222300-
NORTHEAST ALABAMA

CITY           SKY/WX    TMP DP  RH WIND       PRES   REMARKS
ALBERTVILLE    CLOUDY    73  73 100 S8        29.96F
FORT PAYNE     NOT AVBL
SCOTTSBORO AP  CLOUDY    75  75 100 S5        29.96F
SCOTTSBORO HCN   N/A     75 N/A N/A MISG        N/A
VALLEY HEAD      N/A     73 N/A N/A MISG        N/A
$$

TNZ076-096-097-222300-
SOUTHEASTERN MIDDLE TENNESSEE

CITY           SKY/WX    TMP DP  RH WIND       PRES   REMARKS
TULLAHOMA      PTSUNNY   75  73  94 S9        29.95F
WINCHESTER     CLOUDY    75  73  94 SE7         N/A
$$

...SURROUNDING SITES...

CITY           SKY/WX    TMP DP  RH WIND       PRES   REMARKS
ATLANTA        TSTM      79  75  87 S8        30.02S
ANNISTON       LGT RAIN  77  73  87 CALM      29.99R
BIRMINGHAM     CLOUDY    77  74  90 S10       29.96F
CHATTANOOGA    HVY RAIN  76  74  93 SE6       29.99S FOG
CORINTH        FAIR      86  72  62 S17G23    29.81S HX  92
DALTON         LGT RAIN  75  75 100 SE6       30.00S
GADSDEN        LGT RAIN  77  75  93 SE13G20   29.96F
GOLDEN TRNGL   PTSUNNY   84  73  70 SE14      29.77F HX  91
JACKSON TN     PTSUNNY   87  76  69 S8        29.80S HX  97
MEMPHIS        HVY RAIN  83  76  79 S20G36    29.75F HX  91
NASHVILLE      LGT RAIN  80  75  84 S15       29.91S
OXFORD MS      FAIR      84  73  70 SE13G18   29.77F HX  91
ROME           LGT RAIN  80  78  94 SE5       29.99S FOG
SAVANNAH       HAZE      82  75  78 S8G15     29.82F VSB 0
SELMER         MOSUNNY   84  73  70 SE13G20   29.82S HX  91
TUPELO         CLOUDY    84  72  67 SE14G25   29.80F
TUSCALOOSA     CLOUDY    80  77  90 SE8G18    29.87F
$$

...GULF COAST WEATHER...

CITY           SKY/WX    TMP DP  RH WIND       PRES   REMARKS
GULFPORT       CLOUDY    80  78  94 S14G28    29.84S FOG
PASCAGOULA     LGT RAIN  82  76  81 S13G23    29.87S
MOBILE         CLOUDY    82  77  84 S20G29    29.88F HX  90
GULF SHORES    CLOUDY    82  82 100 S15G25    29.92S FOG     HX  95
PENSACOLA      CLOUDY    83  77  82 S21       29.93S HX  92
DESTIN         CLOUDY    87  83  87 S14       29.96F HX 108
PANAMA CITY    SUNNY     85  78  79 S17       29.99F HX  97
APPALACHICOLA  MOSUNNY   86  82  88 S13       30.01S HX 104
$$





USA.gov is the U.S. government's official web portal to all federal, state and local government web resources and services.